SL-16 DEB *

Satellite information

Favourite Embed

Satellite Type and Status

DEBRISIN ORBIT

Key statistics

Satellite SL-16 DEB * at a glance.

Uptime

11897

Days in orbit

Revolutions

≈ 14.2

Per day

Orbit

LEO

Low Earth Orbit

Inclination

71.0

Latest

Satellite identification and parameters

Extended collection of information and parameters for SL-16 DEB *.

Object identification

Identified? True

Debris? True

Object name: SL-16 DEB *

International designator: 1993-016DK

Object number (NORAD): 42255

Object ID (CCSDS): 42255

Country: COMMONWEALTH OF INDEPENDENT STATES (CIS)

Current information (Y/N): Y

RCS size: SMALL

Orbital parameters

Period: 101.222 minutes

Inclination: 71.0058 deg

SMA: 7194.676 km

Apoapsis: 821.818 km

Periapsis: 811.264 km

RAAN: 84.4942 deg

Eccentricy: 0.00073347

Argument of periapsis: 137.7474 deg

Mean anomaly: 12.383 deg

Mean motion: 14.22610194 rev/day

Mean motion (dot): 0.00001825 rev/day2

B* drag term: 0.00083739662 1/REarth

Two-line elements (TLE)

Creation date: Oct. 21, 2025, 3:26 a.m.

Reference frame: TEME

Reference center: EARTH

Epoch: Oct. 20, 2025, 8:35 p.m. UTC

TLE line 0: 0 SL-16 DEB *

TLE line 1: 1 42255U 93016DK 25293.85827968 .00001825 00000-0 83740-3 0 9992

TLE line 2: 2 42255 71.0058 84.4942 0007335 137.7474 12.3830 14.22610194616991

Live tracking on map

Real-time ground track for satellite SL-16 DEB *.

In-orbit conjunctions

A list of the most updated potential collisions computed for object SL-16 DEB *.

Target Orbit TCA Probability of collision Miss distance Type
CZ-6A DEB SSO 2025-02-11 17:50:38 0.000102565 125.0 (m) DEBRIS
CZ-6A DEB LEO 2025-02-08 12:52:49 0.0001945476 730.0 (m) DEBRIS

Associated space launch

Second generation ELING satellite

SL-16 DEB * was lifted into orbit during the mission ‘Zenit-2 | Tselina-2 13’, on board a Zenit-2 space rocket.

The launch took place on March 26, 1993, 2:21 a.m. from 45/1.

For more information about the launch, click the button.

Launch to space Zenit-2 | Tselina-2 13
Zenit-2 | Tselina-2 13

Agency: N/A

Status: Launch Successful

Launch date: March 26, 1993, 2:21 a.m. UTC

Rocket: Zenit-2

Launch pad: 45/1

Location: Baikonur Cosmodrome, Republic of Kazakhstan

...

Latest news about this satellite

There are no fresh news available about this satellite. Check back as we update our databases every day.


Newsletter sign-up

Weekly statistics, charts and insights to help you stay on top of the space industry.